Worcester, MA

2:45 PM EST on February 20, 2017 (GMT -0500)
Worcester Regional

Weather History for KORH - March, 2014

Change the Weather History Date:

Wednesday, March 12, 2014

  Actual Average Record
Temperature  
Mean Temperature 40 °F 33 °F  
Max Temperature 46 °F 41 °F 68 °F (2012)
Min Temperature 33 °F 25 °F 2 °F (1948)
Degree Days  
Heating Degree Days 25 32  
Month to date heating degree days 464 401  
Since 1 July heating degree days 5518 5238  
Cooling Degree Days 0 0  
Month to date cooling degree days 0 0  
Year to date cooling degree days 0 0  
Moisture  
Dew Point 32 °F    
Average Humidity 75    
Maximum Humidity 100    
Minimum Humidity 49    
Precipitation  
Precipitation 0.48 in 0.13 in 2.31 in (1936)
Month to date precipitation 0.49 1.52  
Year to date precipitation 7.67 8.24  
Sea Level Pressure  
Sea Level Pressure 29.31 in    
Wind  
Wind Speed 8 mph (NNE)    
Max Wind Speed 18 mph    
Max Gust Speed 26 mph    
Visibility 6 miles    
Events Fog , Rain    
T = Trace of Precipitation, MM = Missing Value Source: NWS Daily Summary

Daily Weather History Graph

Daily Weather History Graph

Search for Another Location

Airport or City:

Trip Planner

Search our weather history database for the weather conditions in past years. The results will help you decide how hot, cold, wet, or windy it might be!

Date:

Astronomy

Mar. 12, 2014 Rise Set
Actual Time 7:04 AM EDT 6:50 PM EDT
Civil Twilight 6:36 AM EDT 7:18 PM EDT
Nautical Twilight 6:04 AM EDT 7:51 PM EDT
Astronomical Twilight 5:31 AM EDT 8:23 PM EDT
Moon 3:15 PM EDT (3/12) 4:38 AM EDT (3/12)
Length of Visible Light 12h 41m
Length of Day
11h 45m
Waxing Gibbous, 85% of the Moon is Illuminated
Mar 12
Waxing Gibbous
Mar 16
Full
Mar 23
Last Quarter
Mar 30
New
Apr 7
First Quarter

Hourly Weather History & Observations

Time (EDT) Temp. Windchill Dew Point Humidity Pressure Visibility Wind Dir Wind Speed Gust Speed Precip Events Conditions
12:54 AM 43.0 °F 39.5 °F 25.0 °F 49% 29.72 in 10.0 mi West 5.8 mph - N/A   Overcast
1:54 AM 42.1 °F 37.1 °F 26.1 °F 53% 29.71 in 10.0 mi NW 8.1 mph - N/A   Overcast
2:54 AM 39.9 °F 35.8 °F 26.1 °F 58% 29.70 in 10.0 mi SW 5.8 mph - N/A   Overcast
3:54 AM 41.0 °F 39.0 °F 26.1 °F 55% 29.68 in 10.0 mi West 3.5 mph - N/A   Overcast
4:54 AM 43.0 °F 40.3 °F 26.1 °F 51% 29.65 in 10.0 mi WNW 4.6 mph - N/A   Overcast
5:54 AM 42.1 °F 39.2 °F 26.1 °F 53% 29.65 in 10.0 mi ENE 4.6 mph - N/A   Overcast
6:54 AM 39.9 °F 36.7 °F 27.0 °F 60% 29.67 in 10.0 mi East 4.6 mph - N/A   Overcast
7:54 AM 39.0 °F 36.8 °F 27.0 °F 62% 29.67 in 10.0 mi NE 3.5 mph - N/A   Overcast
8:54 AM 39.0 °F 35.7 °F 27.0 °F 62% 29.64 in 10.0 mi NE 4.6 mph - N/A   Overcast
9:54 AM 39.9 °F 34.5 °F 28.0 °F 63% 29.61 in 10.0 mi NNE 8.1 mph - N/A   Overcast
10:54 AM 39.9 °F 34.5 °F 28.9 °F 65% 29.57 in 10.0 mi NE 8.1 mph - N/A   Mostly Cloudy
11:54 AM 42.1 °F 37.1 °F 28.9 °F 60% 29.52 in 10.0 mi ENE 8.1 mph - N/A   Mostly Cloudy
12:54 PM 43.0 °F 38.8 °F 30.0 °F 60% 29.45 in 10.0 mi ENE 6.9 mph - N/A   Overcast
1:03 PM 44.1 °F 40.1 °F 30.0 °F 58% 29.43 in 10.0 mi ENE 6.9 mph - N/A   Overcast
1:54 PM 42.1 °F 36.1 °F 30.9 °F 65% 29.41 in 10.0 mi NE 10.4 mph - 0.00 in Rain Light Rain
2:54 PM 39.0 °F 32.8 °F 33.1 °F 79% 29.35 in 10.0 mi NE 9.2 mph - 0.00 in Rain Light Rain
3:54 PM 37.0 °F 28.5 °F 34.0 °F 89% 29.30 in 7.0 mi NE 13.8 mph - 0.00 in Rain Light Rain
4:16 PM 37.0 °F 29.8 °F 34.0 °F 89% 29.24 in 6.0 mi NE 10.4 mph - 0.00 in Rain Light Rain
4:31 PM 36.0 °F 27.5 °F 35.1 °F 97% 29.23 in 4.0 mi NE 12.7 mph - 0.00 in Rain Light Rain
4:42 PM 36.0 °F 27.5 °F 35.1 °F 97% 29.21 in 2.5 mi NE 12.7 mph - 0.00 in Rain Light Rain
4:54 PM 36.0 °F 27.1 °F 35.1 °F 97% 29.23 in 2.0 mi NNE 13.8 mph 21.9 mph 0.01 in Rain Light Rain
5:04 PM 36.0 °F 28.5 °F 35.1 °F 97% 29.20 in 1.0 mi NE 10.4 mph - 0.00 in Rain Light Rain
5:17 PM 36.0 °F 29.0 °F 35.1 °F 97% 29.18 in 0.5 mi NE 9.2 mph - 0.00 in Fog , Rain Light Rain
5:24 PM 36.0 °F 29.0 °F 35.1 °F 97% 29.18 in 0.2 mi NNE 9.2 mph - 0.00 in Fog , Rain Light Rain
5:50 PM 35.6 °F 29.2 °F 35.6 °F 100% 29.17 in 0.2 mi NE 8.1 mph - 0.00 in Fog , Rain Light Rain
5:54 PM 36.0 °F 29.0 °F 35.1 °F 97% 29.18 in 0.2 mi NE 9.2 mph - 0.00 in Fog , Rain Light Rain
6:54 PM 35.1 °F 29.3 °F 35.1 °F 100% 29.13 in 0.2 mi NE 6.9 mph - 0.04 in Fog , Rain Rain
7:54 PM 35.1 °F 30.1 °F 35.1 °F 100% 29.09 in 0.2 mi ENE 5.8 mph - 0.19 in Fog , Rain Rain
8:05 PM 36.0 °F 31.1 °F 36.0 °F 100% 29.06 in 0.5 mi NE 5.8 mph - 0.02 in Fog , Rain Rain
8:54 PM 36.0 °F 33.3 °F 36.0 °F 100% 29.05 in 1.5 mi NE 3.5 mph - 0.13 in Rain Heavy Rain
9:25 PM 37.0 °F 31.6 °F 36.0 °F 96% 29.02 in 3.0 mi NNE 6.9 mph - 0.05 in Rain Light Rain
9:32 PM 37.0 °F 30.4 °F 36.0 °F 96% 29.02 in 1.8 mi North 9.2 mph - 0.06 in Rain Light Rain
9:52 PM 35.6 °F 29.2 °F 35.6 °F 100% 29.03 in 3.0 mi NNW 8.1 mph - 0.07 in   Overcast
9:54 PM 36.0 °F 28.0 °F 36.0 °F 100% 29.05 in 4.0 mi North 11.5 mph - 0.07 in   Overcast
10:34 PM 36.0 °F 29.6 °F 35.1 °F 97% 29.03 in 10.0 mi North 8.1 mph - 0.02 in Rain Light Rain
10:49 PM 35.6 °F 28.6 °F 35.6 °F 100% 29.00 in 7.0 mi North 9.2 mph - 0.03 in Rain Light Rain
10:54 PM 36.0 °F 28.5 °F 35.1 °F 97% 29.04 in 10.0 mi North 10.4 mph - 0.04 in Rain Light Rain
11:10 PM 36.0 °F 28.0 °F 35.1 °F 97% 29.01 in 10.0 mi NNE 11.5 mph - 0.00 in Rain Light Rain
11:54 PM 35.1 °F 26.4 °F 34.0 °F 96% 29.02 in 10.0 mi NNE 12.7 mph 17.3 mph 0.00 in   Overcast